Weather History for Waco, TX

Change the Weather History Date:

Tuesday, March 19, 2013

  Actual Average Record
Temperature  
Mean Temperature 56 °F 59 °F  
Max Temperature 73 °F 70 °F 90 °F (1907)
Min Temperature 38 °F 48 °F 21 °F (1923)
Degree Days  
Heating Degree Days 9 7  
Month to date heating degree days 179 175  
Since 1 July heating degree days 1745 1987  
Cooling Degree Days 0 1  
Month to date cooling degree days 15 18  
Year to date cooling degree days 32 27  
Growing Degree Days 5 (Base 50)    
Moisture  
Dew Point 44 °F    
Average Humidity 64    
Maximum Humidity 83    
Minimum Humidity 44    
Precipitation  
Precipitation 0.14 in 0.09 in 3.96 in (2012)
Month to date precipitation 1.77 2.05  
Year to date precipitation 8.92 6.80  
Snow  
Snow 0.00 in 0.00 in 0.00 in ()
Month to date snowfall 0.0 0.1  
Since 1 July snowfall T 1.0  
Snow Depth 0.00 in    
Sea Level Pressure  
Sea Level Pressure 29.99 in    
Wind  
Wind Speed 8 mph (NE)    
Max Wind Speed 29 mph    
Max Gust Speed 35 mph    
Visibility 10 miles    
Events Rain , Thunderstorm    
T = Trace of Precipitation, MM = Missing Value Source: NWS Daily Summary

Daily Weather History Graph

Daily Weather History Graph

Search for Another Location

Airport:

Trip Planner

Search our weather history database for the weather conditions in past years. The results will help you decide how hot, cold, wet, or windy it might be!

Date:

Astronomy

Mar. 19, 2013 Rise Set
Actual Time 7:33 AM CDT 7:39 PM CDT
Civil Twilight 7:09 AM CDT 8:04 PM CDT
Nautical Twilight 6:41 AM CDT 8:32 PM CDT
Astronomical Twilight 6:12 AM CDT 9:01 PM CDT
Moon 12:44 PM CDT (3/19) 2:07 AM CDT (3/19)
Length of Visible Light 12h 54m
Length of Day
12h 06m
Waxing Crescent, 50% of the Moon is Illuminated
Mar 19
Waxing Crescent
Mar 19
First Quarter
Mar 27
Full
Apr 2
Last Quarter
Apr 10
New

Hourly Weather History & Observations

Time (CDT) Temp. Windchill Dew Point Humidity Pressure Visibility Wind Dir Wind Speed Gust Speed Precip Events Conditions
12:51 AM 54.0 °F - 43.0 °F 66% 29.98 in 10.0 mi NE 8.1 mph - N/A   Clear
1:51 AM 54.0 °F - 42.1 °F 64% 29.96 in 10.0 mi ENE 8.1 mph - N/A   Clear
2:51 AM 53.1 °F - 39.9 °F 61% 29.96 in 10.0 mi East 6.9 mph - N/A   Clear
3:51 AM 48.0 °F - 39.9 °F 74% 29.97 in 10.0 mi NNE 4.6 mph - N/A   Clear
4:51 AM 44.6 °F 43.1 °F 37.4 °F 76% 29.95 in 10.0 mi NE 3.5 mph - N/A   Clear
5:51 AM 44.1 °F 41.5 °F 37.9 °F 79% 29.95 in 10.0 mi North 4.6 mph - N/A   Clear
6:51 AM 45.0 °F 41.2 °F 39.0 °F 80% 29.99 in 10.0 mi North 6.9 mph - N/A   Clear
7:51 AM 45.0 °F 40.6 °F 39.0 °F 80% 30.03 in 10.0 mi North 8.1 mph - N/A   Clear
8:51 AM 48.9 °F - 42.1 °F 77% 30.03 in 9.0 mi NE 6.9 mph - N/A   Clear
9:51 AM 55.0 °F - 44.1 °F 67% 30.04 in 10.0 mi ENE 8.1 mph - N/A   Clear
10:34 AM 59.0 °F - 46.4 °F 63% 30.04 in 10.0 mi ENE 10.4 mph - N/A   Mostly Cloudy
10:51 AM 61.0 °F - 46.0 °F 58% 30.03 in 10.0 mi ENE 8.1 mph - N/A   Mostly Cloudy
11:51 AM 63.0 °F - 43.0 °F 48% 30.02 in 10.0 mi Variable 6.9 mph - N/A   Overcast
12:32 PM 66.2 °F - 46.4 °F 49% 30.02 in 10.0 mi Calm Calm - N/A   Overcast
12:51 PM 66.0 °F - 46.0 °F 48% 30.00 in 10.0 mi Variable 3.5 mph - N/A   Overcast
1:51 PM 68.0 °F - 46.9 °F 47% 29.98 in 10.0 mi East 4.6 mph - N/A   Clear
2:51 PM 70.0 °F - 48.9 °F 47% 29.96 in 10.0 mi NE 3.5 mph - N/A   Clear
3:51 PM 71.1 °F - 50.0 °F 47% 29.93 in 10.0 mi East 9.2 mph - N/A   Clear
4:51 PM 72.0 °F - 48.9 °F 44% 29.93 in 10.0 mi NE 6.9 mph - N/A   Clear
5:51 PM 68.0 °F - 48.0 °F 49% 29.94 in 10.0 mi NNE 15.0 mph - N/A   Clear
6:51 PM 66.0 °F - 46.0 °F 48% 29.93 in 10.0 mi NE 12.7 mph - N/A   Clear
7:51 PM 64.9 °F - 45.0 °F 48% 29.95 in 10.0 mi NNE 11.5 mph - N/A   Partly Cloudy
8:51 PM 62.1 °F - 48.0 °F 60% 29.93 in 10.0 mi NE 8.1 mph - 0.02 in   Mostly Cloudy
9:27 PM 64.4 °F - 46.4 °F 52% 30.01 in 10.0 mi NE 11.5 mph - 0.00 in Rain Light Rain
9:51 PM 57.9 °F - 48.0 °F 70% 30.03 in 10.0 mi NNE 23.0 mph 34.5 mph 0.00 in   Scattered Clouds
10:51 PM 57.0 °F - 46.9 °F 69% 30.01 in 9.0 mi North - - 0.00 in Rain Light Rain
11:49 PM 53.6 °F - 46.4 °F 77% 30.10 in 6.0 mi North - - 0.07 in Rain , Thunderstorm Light Rain
11:51 PM 54.0 °F - 46.9 °F 77% 30.09 in 6.0 mi North - - 0.07 in Rain , Thunderstorm Light Rain